GW0112 Weather Reports


time (UTC)temp
F
wind
direction
speed
knots
gust
knots
rain 1hr
in
rain 24hr
in
rain mn
in
humidity
%
barometer
mb
20260510140050 55 11 6.1 15.6 0.00 0.00 0.00 68 1015.5
20260510135539 55 9 6.1 13.0 0.00 0.00 0.00 69 1015.6
20260510135039 55 35 4.3 13.9 0.00 0.00 0.00 69 1015.6
20260510134605 55 27 6.1 13.9 0.00 0.00 0.00 68 1015.6
20260510134041 55 9 5.2 13.0 0.00 0.00 0.00 69 1015.7
20260510133539 55 355 5.2 13.0 0.00 0.00 0.00 69 1015.6
20260510133052 55 5 4.3 13.9 0.00 0.00 0.00 70 1015.6
20260510132540 54 308 4.3 13.9 0.00 0.00 0.00 71 1015.7
20260510132043 54 36 6.1 14.8 0.00 0.00 0.00 71 1015.7
20260510131552 54 22 6.1 14.8 0.00 0.00 0.00 71 1015.8
20260510131041 54 33 6.1 12.2 0.00 0.00 0.00 71 1015.8
20260510130540 55 355 6.1 12.2 0.00 0.00 0.00 70 1015.8
20260510130051 55 34 6.1 13.0 0.00 0.00 0.00 69 1015.9
20260510125602 55 37 5.2 14.8 0.00 0.00 0.00 69 1015.9
20260510125039 56 18 5.2 18.2 0.00 0.00 0.00 69 1016.0
20260510124550 56 342 5.2 18.2 0.00 0.00 0.00 69 1016.0
20260510124043 56 340 5.2 16.5 0.00 0.00 0.00 70 1016.0
20260510123543 55 27 6.1 16.5 0.00 0.00 0.00 73 1016.0
20260510123051 54 343 7.0 18.2 0.00 0.00 0.00 73 1016.1
20260510122542 54 329 7.0 18.2 0.00 0.00 0.00 73 1016.3
20260510122041 54 46 7.8 18.2 0.00 0.00 0.00 73 1016.2
20260510121547 54 105 5.2 14.8 0.00 0.00 0.00 74 1016.2
20260510121040 54 39 4.3 14.8 0.00 0.00 0.00 74 1016.2
20260510120541 54 327 5.2 13.0 0.00 0.00 0.00 73 1016.3
20260510120047 54 340 5.2 12.2 0.00 0.00 0.00 73 1016.2
20260510115540 54 53 6.1 15.6 0.00 0.00 0.00 73 1016.2
20260510115040 55 20 6.1 15.6 0.00 0.00 0.00 74 1016.3
20260510114605 54 349 5.2 15.6 0.00 0.00 0.00 74 1016.4
20260510114039 54 5 4.3 14.8 0.00 0.00 0.00 74 1016.6
20260510113541 54 360 7.0 14.8 0.00 0.00 0.00 73 1016.5
20260510113057 55 360 6.1 14.8 0.00 0.00 0.00 73 1016.4
20260510112540 55 10 6.1 14.8 0.00 0.00 0.00 72 1016.5
20260510112042 56 42 5.2 13.9 0.00 0.00 0.00 71 1016.5
20260510111548 56 15 7.0 17.4 0.00 0.00 0.00 71 1016.5
20260510111041 56 347 7.0 17.4 0.00 0.00 0.00 71 1016.5
20260510110543 56 5 6.1 17.4 0.00 0.00 0.00 71 1016.6
20260510110049 56 21 6.1 14.8 0.00 0.00 0.00 70 1016.6
20260510105543 57 347 7.0 13.9 0.00 0.00 0.00 69 1016.7
20260510105042 58 344 5.2 13.9 0.00 0.00 0.00 68 1016.7
20260510104556 58 355 5.2 13.0 0.00 0.00 0.00 69 1016.8
20260510104040 57 327 6.1 15.6 0.00 0.00 0.00 69 1016.8
20260510103540 56 351 7.8 15.6 0.00 0.00 0.00 70 1016.7
20260510103046 56 31 6.1 15.6 0.00 0.00 0.00 70 1016.7
20260510102541 56 15 7.0 15.6 0.00 0.00 0.00 70 1016.8
20260510102042 56 14 7.8 15.6 0.00 0.00 0.00 70 1016.7
20260510101548 56 5 7.0 15.6 0.00 0.00 0.00 70 1016.7
20260510101040 56 15 7.0 13.0 0.00 0.00 0.00 70 1016.7
20260510100540 57 12 5.2 13.0 0.00 0.00 0.00 70 1016.7
20260510095541 58 78 7.0 16.5 0.00 0.00 0.00 68 1016.6
20260510095040 58 338 7.8 16.5 0.00 0.00 0.00 69 1016.8
20260510094557 59 30 7.8 16.5 0.00 0.00 0.00 69 1016.7
20260510094041 58 355 7.8 15.6 0.00 0.00 0.00 70 1016.7
20260510093541 57 40 6.1 17.4 0.00 0.00 0.00 72 1016.8
20260510093051 56 13 8.7 17.4 0.00 0.00 0.00 69 1016.9
20260510092540 58 57 7.8 13.9 0.00 0.00 0.00 68 1017.0
20260510092040 58 63 5.2 16.5 0.00 0.00 0.00 71 1016.8
20260510091548 56 22 7.8 20.0 0.00 0.00 0.00 73 1016.9
20260510091039 54 360 7.8 20.0 0.00 0.00 0.00 74 1017.0
20260510090543 54 24 7.0 17.4 0.00 0.00 0.00 74 1017.2
20260510090049 54 26 6.1 17.4 0.00 0.00 0.00 75 1017.3
20260510085540 53 53 7.0 14.8 0.00 0.00 0.00 75 1017.3
20260510085040 53 330 5.2 14.8 0.00 0.00 0.00 76 1017.3
20260510084550 53 17 6.1 14.8 0.00 0.00 0.00 76 1017.4
20260510084040 52 13 6.1 15.6 0.00 0.00 0.00 77 1017.4
20260510083540 52 30 4.3 15.6 0.00 0.00 0.00 77 1017.3
20260510083050 52 49 6.1 15.6 0.00 0.00 0.00 77 1017.4
20260510082540 52 42 6.1 12.2 0.00 0.00 0.00 77 1017.5
20260510082041 52 342 4.3 12.2 0.00 0.00 0.00 78 1017.6
20260510081550 52 19 5.2 16.5 0.00 0.00 0.00 78 1017.4
20260510081041 52 40 4.3 16.5 0.00 0.00 0.00 79 1017.5
20260510080540 52 11 6.1 16.5 0.00 0.00 0.00 79 1017.5
20260510080055 52 24 6.1 16.5 0.00 0.00 0.00 79 1017.4
20260510075541 52 19 5.2 11.3 0.00 0.00 0.00 79 1017.5
20260510075040 51 32 5.2 11.3 0.00 0.00 0.00 80 1017.5
20260510074559 51 20 3.5 11.3 0.00 0.00 0.00 80 1017.2
20260510074041 51 344 4.3 13.0 0.00 0.00 0.00 80 1017.4
20260510073540 51 340 1.7 13.0 0.00 0.00 0.00 81 1017.3
20260510073050 51 51 5.2 13.0 0.00 0.00 0.00 81 1017.4
20260510072542 51 323 4.3 13.0 0.00 0.00 0.00 81 1017.1
20260510072043 51 11 5.2 14.8 0.00 0.00 0.00 82 1017.5
20260510071547 51 21 5.2 14.8 0.00 0.00 0.00 82 1017.3
20260510071042 51 5 6.1 14.8 0.00 0.00 0.00 82 1017.4
20260510070540 50 32 4.3 13.9 0.00 0.00 0.00 82 1017.2
20260510065543 50 28 5.2 15.6 0.00 0.00 0.00 83 1017.1
20260510065041 50 54 6.1 15.6 0.00 0.00 0.00 83 1017.2
20260510064559 50 23 7.0 15.6 0.00 0.00 0.00 84 1017.1
20260510064040 50 43 4.3 14.8 0.00 0.00 0.00 84 1017.2
20260510063540 50 25 5.2 13.9 0.00 0.00 0.00 84 1017.1
20260510063054 50 344 4.3 13.9 0.00 0.00 0.00 85 1017.1
20260510062542 49 329 5.2 10.4 0.00 0.00 0.00 85 1017.0
20260510062042 49 339 2.6 13.0 0.00 0.00 0.00 85 1017.0
20260510061549 49 11 4.3 13.0 0.00 0.00 0.00 85 1016.9
20260510061042 49 352 5.2 13.0 0.00 0.00 0.00 85 1017.0
20260510060540 49 355 4.3 14.8 0.00 0.00 0.00 85 1016.9
20260510060056 49 350 4.3 14.8 0.00 0.00 0.00 85 1017.0
20260510055541 49 5 4.3 13.0 0.00 0.00 0.00 86 1016.9
20260510055040 49 35 6.1 13.9 0.00 0.00 0.00 86 1016.9
20260510054556 49 24 5.2 13.9 0.00 0.00 0.00 86 1016.9
20260510054039 49 350 3.5 13.9 0.00 0.00 0.00 86 1017.0
20260510053539 49 355 6.1 13.9 0.00 0.00 0.00 86 1017.0
20260510053050 49 24 5.2 13.9 0.00 0.00 0.00 86 1016.9
20260510052544 49 5 4.3 11.3 0.00 0.00 0.00 87 1016.9
20260510052041 49 40 4.3 13.0 0.00 0.00 0.00 87 1017.0
20260510051551 49 355 4.3 13.0 0.00 0.00 0.00 87 1017.0
20260510051040 49 333 5.2 13.0 0.00 0.00 0.00 87 1017.0
20260510050542 49 322 3.5 13.0 0.00 0.00 0.00 87 1017.0
20260510050046 49 346 4.3 12.2 0.00 0.00 0.00 87 1016.8
20260510045541 49 340 4.3 13.0 0.00 0.00 0.00 87 1016.8
20260510045041 48 17 3.5 13.0 0.00 0.00 0.00 87 1016.8
20260510044600 48 19 3.5 12.2 0.00 0.00 0.00 87 1016.9
20260510044040 48 346 4.3 12.2 0.00 0.00 0.00 87 1016.8
20260510043540 48 5 5.2 11.3 0.00 0.00 0.00 87 1016.7
20260510043051 48 28 3.5 11.3 0.00 0.00 0.00 87 1016.8
20260510042541 48 319 5.2 13.0 0.00 0.00 0.00 87 1016.8
20260510042043 48 343 5.2 13.0 0.00 0.00 0.00 87 1016.8
20260510041553 48 360 4.3 13.0 0.00 0.00 0.00 87 1017.0
20260510041040 48 5 4.3 12.2 0.00 0.00 0.00 87 1017.0
20260510040542 48 36 4.3 11.3 0.00 0.00 0.00 87 1017.0
20260510040055 48 34 3.5 11.3 0.00 0.00 0.00 87 1017.0
20260510035540 48 343 5.2 11.3 0.00 0.00 0.00 87 1017.0
20260510035043 48 360 1.7 9.6 0.00 0.00 0.00 87 1017.1
20260510034551 48 71 3.5 9.6 0.00 0.00 0.00 87 1017.1
20260510034041 48 13 1.7 9.6 0.00 0.00 0.00 87 1017.1
20260510033539 48 344 2.6 9.6 0.00 0.00 0.00 87 1017.2
20260510033115 48 14 2.6 8.7 0.00 0.00 0.00 88 1017.2
20260510032543 48 17 2.6 9.6 0.00 0.00 0.00 87 1017.3
20260510032040 48 83 2.6 9.6 0.00 0.00 0.00 88 1017.3
20260510031554 48 9 2.6 9.6 0.00 0.00 0.00 87 1017.3
20260510031041 48 323 3.5 9.6 0.00 0.00 0.00 87 1017.3
20260510030537 48 303 2.6 11.3 0.00 0.00 0.00 87 1017.3
20260510030052 48 51 3.5 11.3 0.00 0.00 0.00 87 1017.3
20260510025537 48 5 3.5 8.7 0.00 0.00 0.00 87 1017.5
20260510025041 48 25 2.6 9.6 0.00 0.00 0.00 87 1017.5
20260510024552 48 324 3.5 10.4 0.00 0.00 0.00 87 1017.5
20260510024042 48 323 4.3 10.4 0.00 0.00 0.00 87 1017.5
20260510023541 48 12 4.3 8.7 0.00 0.00 0.00 87 1017.4
20260510023047 48 16 3.5 10.4 0.00 0.00 0.00 87 1017.4
20260510022543 48 10 2.6 10.4 0.00 0.00 0.00 87 1017.4
20260510022041 48 337 5.2 10.4 0.00 0.00 0.00 87 1017.4
20260510021550 48 22 2.6 11.3 0.00 0.00 0.00 86 1017.3
20260510021043 48 336 4.3 11.3 0.00 0.00 0.00 86 1017.4
20260510020541 48 24 3.5 11.3 0.00 0.00 0.00 86 1017.4
20260510020051 48 346 5.2 10.4 0.00 0.00 0.00 86 1017.4
20260510015540 49 38 3.5 9.6 0.00 0.00 0.00 86 1017.5
20260510015046 49 11 3.5 10.4 0.00 0.00 0.00 85 1017.5
20260510014602 49 296 3.5 10.4 0.00 0.00 0.00 85 1017.7
20260510014041 49 348 4.3 10.4 0.00 0.00 0.00 85 1017.7
20260510013542 49 344 2.6 9.6 0.00 0.00 0.00 84 1017.7
20260510013051 49 16 1.7 9.6 0.00 0.00 0.00 84 1017.7
20260510012540 49 11 3.5 7.8 0.00 0.00 0.00 84 1017.7
20260510012043 49 360 1.7 7.8 0.00 0.00 0.00 84 1017.7
20260510011557 49 302 2.6 9.6 0.00 0.00 0.00 83 1017.6
20260510011044 49 17 2.6 9.6 0.00 0.00 0.00 83 1017.5
20260510010540 49 344 1.7 9.6 0.00 0.00 0.00 82 1017.5
20260510010058 50 57 1.7 7.8 0.00 0.00 0.00 82 1017.6
20260510005541 50 5 1.7 9.6 0.00 0.00 0.00 81 1017.6
20260510005043 50 355 1.7 9.6 0.00 0.00 0.00 80 1017.6
20260510004555 50 355 3.5 8.7 0.00 0.00 0.00 79 1017.6
20260510004041 50 333 2.6 8.7 0.00 0.00 0.00 78 1017.6
20260510003541 51 346 1.7 7.8 0.00 0.00 0.00 76 1017.6
20260510003054 51 338 2.6 7.8 0.00 0.00 0.00 75 1017.6
20260510002540 51 34 2.6 7.0 0.00 0.00 0.00 73 1017.7
20260510002040 51 17 3.5 7.8 0.00 0.00 0.00 72 1017.6
20260510001550 51 346 3.5 8.7 0.00 0.00 0.00 70 1017.7
20260510001040 51 9 2.6 12.2 0.00 0.00 0.00 70 1017.7
20260510000541 51 331 3.5 12.2 0.00 0.00 0.00 69 1017.7
20260510000057 52 19 5.2 11.3 0.00 0.00 0.00 67 1017.6
20260509235543 52 351 1.7 7.8 0.00 0.00 0.00 66 1017.6
20260509235040 52 20 3.5 11.3 0.00 0.00 0.00 66 1017.5
20260509234603 53 321 3.5 11.3 0.00 0.00 0.00 66 1017.6
20260509234040 53 360 6.1 11.3 0.00 0.00 0.00 65 1017.5
20260509233542 53 344 4.3 10.4 0.00 0.00 0.00 65 1017.5
20260509233048 53 28 3.5 10.4 0.00 0.00 0.00 66 1017.5
20260509232540 53 347 4.3 10.4 0.00 0.00 0.00 66 1017.6
20260509232040 54 344 2.6 7.8 0.00 0.00 0.00 65 1017.4
20260509231550 54 5 3.5 7.8 0.00 0.00 0.00 64 1017.5
20260509231039 54 20 3.5 9.6 0.00 0.00 0.00 64 1017.5
20260509230540 54 17 2.6 9.6 0.00 0.00 0.00 64 1017.6
20260509230054 54 5 4.3 9.6 0.00 0.00 0.00 64 1017.6
20260509225544 54 342 3.5 9.6 0.00 0.00 0.00 63 1017.5
20260509225039 54 20 3.5 8.7 0.00 0.00 0.00 63 1017.5
20260509224552 54 13 2.6 7.0 0.00 0.00 0.00 62 1017.5
20260509224039 54 14 2.6 7.0 0.00 0.00 0.00 61 1017.5
20260509223544 54 355 2.6 7.0 0.00 0.00 0.00 61 1017.4
20260509223055 54 16 2.6 7.0 0.00 0.00 0.00 61 1017.3
20260509222540 55 18 1.7 5.2 0.00 0.00 0.00 60 1017.2
20260509222040 55 10 1.7 5.2 0.00 0.00 0.00 60 1017.2
20260509221550 55 355 1.7 4.3 0.00 0.00 0.00 59 1017.2
20260509221039 55 338 1.7 7.0 0.00 0.00 0.00 59 1017.3
20260509220540 55 18 1.7 7.0 0.00 0.00 0.00 59 1017.3
20260509220059 56 18 2.6 6.1 0.00 0.00 0.00 59 1017.4
20260509215540 56 28 1.7 4.3 0.00 0.00 0.00 58 1017.4
20260509215043 56 0 0.9 4.3 0.00 0.00 0.00 57 1017.3
20260509214551 56 51 0.9 4.3 0.00 0.00 0.00 56 1017.4
20260509214040 57 24 1.7 5.2 0.00 0.00 0.00 56 1017.3
20260509213541 57 45 1.7 5.2 0.00 0.00 0.00 55 1017.2
20260509213043 57 14 1.7 4.3 0.00 0.00 0.00 55 1017.2
20260509212539 57 36 1.7 5.2 0.00 0.00 0.00 55 1017.2
20260509212040 57 39 2.6 10.4 0.00 0.00 0.00 54 1017.1
20260509211550 58 32 3.5 10.4 0.00 0.00 0.00 53 1017.1
20260509211040 58 360 3.5 10.4 0.00 0.00 0.00 53 1017.0
20260509210540 58 30 1.7 6.1 0.00 0.00 0.00 53 1017.0
20260509210047 58 34 1.7 6.1 0.00 0.00 0.00 52 1017.0
20260509205540 58 22 1.7 7.8 0.00 0.00 0.00 51 1016.9
20260509205040 59 45 2.6 8.7 0.00 0.00 0.00 51 1017.0
20260509204559 59 50 3.5 8.7 0.00 0.00 0.00 50 1016.9
20260509204040 59 42 2.6 11.3 0.00 0.00 0.00 50 1016.8
20260509203540 59 11 3.5 11.3 0.00 0.00 0.00 50 1016.9
20260509203050 59 93 5.2 11.3 0.00 0.00 0.00 49 1016.8
20260509202545 59 17 3.5 8.7 0.00 0.00 0.00 50 1016.7
20260509202044 59 17 3.5 8.7 0.00 0.00 0.00 49 1016.6
20260509201550 60 22 2.6 8.7 0.00 0.00 0.00 49 1016.6
20260509201042 60 14 3.5 8.7 0.00 0.00 0.00 48 1016.5
20260509200542 60 28 3.5 9.6 0.00 0.00 0.00 49 1016.3
20260509200053 60 355 4.3 9.6 0.00 0.00 0.00 48 1016.3
20260509195540 60 32 4.3 9.6 0.00 0.00 0.00 49 1016.3
20260509195042 60 52 3.5 8.7 0.00 0.00 0.00 49 1016.2
20260509194549 61 17 2.6 10.4 0.00 0.00 0.00 49 1016.3
20260509194040 61 23 3.5 10.4 0.00 0.00 0.00 49 1016.1
20260509193540 61 72 3.5 9.6 0.00 0.00 0.00 49 1016.1
20260509193052 61 56 3.5 9.6 0.00 0.00 0.00 49 1016.1
20260509192543 61 70 2.6 8.7 0.00 0.00 0.00 50 1016.1
20260509192040 62 72 2.6 7.8 0.00 0.00 0.00 50 1016.0
20260509191555 62 99 2.6 7.8 0.00 0.00 0.00 49 1015.9
20260509191042 62 53 3.5 11.3 0.00 0.00 0.00 49 1015.9
20260509190540 62 78 4.3 11.3 0.00 0.00 0.00 48 1015.8
20260509190057 63 73 3.5 11.3 0.00 0.00 0.00 49 1015.9
20260509185543 63 76 3.5 9.6 0.00 0.00 0.00 50 1015.9
20260509185041 63 53 3.5 10.4 0.00 0.00 0.00 50 1015.8
20260509184546 63 63 2.6 10.4 0.00 0.00 0.00 51 1015.8
20260509184039 64 115 3.5 7.0 0.00 0.00 0.00 51 1015.8
20260509183540 64 82 2.6 7.8 0.00 0.00 0.00 51 1015.7
20260509183054 64 69 1.7 7.8 0.00 0.00 0.00 51 1015.7
20260509182541 65 63 3.5 10.4 0.00 0.00 0.00 51 1015.7
20260509182040 65 80 4.3 10.4 0.00 0.00 0.00 50 1015.6
20260509181602 65 86 3.5 9.6 0.00 0.00 0.00 49 1015.6
20260509181040 66 50 1.7 8.7 0.00 0.00 0.00 50 1015.6
20260509180543 66 53 2.6 8.7 0.00 0.00 0.00 49 1015.5
20260509180053 66 59 3.5 11.3 0.00 0.00 0.00 50 1015.7
20260509175540 66 64 3.5 11.3 0.00 0.00 0.00 49 1015.6
20260509175044 66 51 3.5 11.3 0.00 0.00 0.00 49 1015.5
20260509174557 66 82 2.6 9.6 0.00 0.00 0.00 49 1015.4
20260509174043 66 70 3.5 10.4 0.00 0.00 0.00 48 1015.4
20260509173542 67 94 4.3 10.4 0.00 0.00 0.00 48 1015.3
20260509173057 67 75 3.5 8.7 0.00 0.00 0.00 48 1015.3
20260509172540 68 55 2.6 8.7 0.00 0.00 0.00 47 1015.2
20260509172041 68 46 1.7 8.7 0.00 0.00 0.00 48 1015.2
20260509171552 68 67 3.5 8.7 0.00 0.00 0.00 47 1015.3
20260509171043 68 74 3.5 8.7 0.00 0.00 0.00 47 1015.3
20260509170540 68 80 3.5 8.7 0.00 0.00 0.00 47 1015.3
20260509170046 68 53 4.3 8.7 0.00 0.00 0.00 46 1015.4
20260509165540 68 75 3.5 9.6 0.00 0.00 0.00 47 1015.4
20260509165043 68 77 4.3 9.6 0.00 0.00 0.00 47 1015.3
20260509164550 68 90 3.5 11.3 0.00 0.00 0.00 47 1015.3
20260509164043 69 94 4.3 11.3 0.00 0.00 0.00 48 1015.3
20260509163543 69 60 4.3 9.6 0.00 0.00 0.00 47 1015.2
20260509163103 69 92 2.6 8.7 0.00 0.00 0.00 47 1015.2
20260509162543 69 88 3.5 9.6 0.00 0.00 0.00 48 1015.2
20260509162040 68 102 3.5 9.6 0.00 0.00 0.00 47 1015.2
20260509161552 69 76 3.5 9.6 0.00 0.00 0.00 48 1015.2
20260509161041 68 78 2.6 9.6 0.00 0.00 0.00 49 1015.4
20260509160540 68 71 2.6 10.4 0.00 0.00 0.00 48 1015.5
20260509160057 68 36 3.5 10.4 0.00 0.00 0.00 48 1015.5
20260509155540 69 49 2.6 14.8 0.00 0.00 0.00 48 1015.5
20260509155040 69 91 3.5 14.8 0.00 0.00 0.00 46 1015.6
20260509154600 69 27 2.6 8.7 0.00 0.00 0.00 49 1015.6
20260509154039 69 82 1.7 9.6 0.00 0.00 0.00 47 1015.6
20260509153539 69 82 2.6 9.6 0.00 0.00 0.00 46 1015.7
20260509153054 69 65 1.7 7.0 0.00 0.00 0.00 50 1015.7
20260509152540 68 63 1.7 6.1 0.00 0.00 0.00 47 1015.8
20260509152041 69 86 1.7 6.1 0.00 0.00 0.00 46 1015.8
20260509151553 69 35 2.6 8.7 0.00 0.00 0.00 45 1015.7
20260509151040 69 44 3.5 8.7 0.00 0.00 0.00 44 1015.7
20260509150539 69 65 3.5 8.7 0.00 0.00 0.00 43 1015.6
20260509150050 69 83 1.7 6.1 0.00 0.00 0.00 44 1015.6
20260509145542 69 0 1.7 10.4 0.00 0.00 0.00 44 1015.6
20260509145040 70 42 3.5 10.4 0.00 0.00 0.00 43 1015.6
20260509144605 70 61 3.5 10.4 0.00 0.00 0.00 43 1015.6
20260509144040 70 5 3.5 9.6 0.00 0.00 0.00 43 1015.6
20260509143540 70 334 2.6 6.1 0.00 0.00 0.00 47 1015.5
20260509143056 70 54 2.6 11.3 0.00 0.00 0.00 45 1015.4
20260509142540 71 355 3.5 11.3 0.00 0.00 0.00 43 1015.4
20260509142040 72 26 2.6 10.4 0.00 0.00 0.00 45 1015.2
20260509141555 72 78 2.6 10.4 0.00 0.00 0.00 43 1015.2
20260509141040 71 74 2.6 10.4 0.00 0.00 0.00 42 1015.3
20260509140539 70 78 4.3 8.7 0.00 0.00 0.00 41 1015.4